Theta_e
309 309 309 309 310 310 310 310 310 311 311 311 311 311 311 311 311 311 311 311 311 311 312 311 311 311 311 310 310 310 310 310 311 312 312 313 313 312 312 312 312 312 312 312 312 313 313 313 313 313 313 313 315 316 316 315 316 317 320 320 317 318 318 318 319 317 317 318 316 313 313 316 315 314 313 314 314 314 314 314 315 315 315 315 315 315 315 315
309 309 309 309 310 310 310 310 311 311 311 311 311 311 311 311 311 311 311 311 311 311 312 312 311 311 311 310 310 310 310 310 311 312 312 313 313 312 312 313 312 312 312 312 312 312 313 313 313 314 313 314 314 315 316 316 315 317 320 318 318 320 318 317 318 317 316 317 316 314 313 315 315 315 314 315 316 314 315 315 315 315 315 315 315 315 315 315
309 309 309 309 310 310 310 311 311 311 311 311 311 311 311 311 311 311 311 311 311 311 311 311 312 311 310 310 310 310 310 311 311 312 312 313 314 313 313 313 313 312 312 313 312 312 313 314 314 314 314 314 314 314 315 316 315 316 317 318 319 319 316 314 315 316 314 314 315 314 313 314 315 314 314 316 316 315 316 316 316 315 316 316 316 316 316 315
309 309 310 310 310 310 310 311 311 311 311 311 311 311 311 311 311 311 311 311 311 311 312 311 311 311 310 310 310 310 311 312 313 313 312 314 314 314 314 314 313 313 313 313 313 313 313 314 314 314 314 315 315 314 315 315 315 315 316 317 317 315 316 314 313 314 313 313 314 314 313 313 314 313 314 315 315 316 316 317 317 316 316 316 316 316 316 316
309 310 310 310 310 310 310 310 311 311 311 311 311 311 311 311 311 311 311 311 312 311 311 311 311 311 310 310 310 311 313 312 314 314 313 314 314 313 314 313 312 313 314 314 314 314 314 314 314 314 315 316 315 315 315 313 314 315 314 315 313 313 316 314 312 313 313 313 314 313 314 314 314 313 314 315 315 317 317 317 316 316 317 316 316 316 316 316
309 310 310 310 310 310 310 310 310 310 311 311 311 311 310 310 310 311 311 311 312 311 311 311 311 310 310 310 310 311 313 313 315 315 314 314 314 313 313 313 313 314 315 316 315 314 314 314 315 315 316 316 315 315 314 312 314 316 314 312 312 313 315 313 312 313 313 313 314 314 314 314 314 314 314 314 316 317 317 316 316 316 316 316 316 315 316 316
309 310 310 310 310 310 310 310 310 310 311 311 310 310 310 310 310 311 311 311 311 311 310 310 310 310 310 310 310 311 313 313 314 314 314 314 313 313 314 314 315 316 316 317 315 314 314 314 315 315 316 315 314 315 314 313 314 316 316 313 312 312 313 313 312 313 312 313 313 313 314 314 314 315 314 313 315 316 316 316 316 316 316 316 316 316 316 315
309 309 310 309 309 310 310 310 310 311 311 310 309 309 308 309 309 310 311 310 310 310 309 310 311 310 310 310 311 312 313 313 313 313 313 313 313 314 314 314 314 314 316 318 316 314 314 314 315 315 315 315 314 315 314 314 315 316 315 313 312 312 312 313 312 312 312 312 312 313 314 314 313 314 313 314 315 315 316 316 316 316 315 316 316 316 316 315
309 309 309 309 309 309 310 310 310 310 309 309 308 307 307 308 308 309 309 309 309 309 309 310 310 310 310 310 310 312 313 314 313 313 313 313 314 314 314 313 314 314 315 318 317 315 314 315 315 315 315 314 314 315 313 315 316 315 314 313 313 313 312 313 312 312 312 312 312 314 315 314 313 313 314 315 316 316 316 315 315 316 315 316 316 316 316 316
308 309 308 309 309 309 310 310 309 308 307 307 306 306 307 307 307 308 308 308 308 308 309 310 310 310 310 310 310 312 313 313 313 312 313 314 314 313 314 313 313 313 313 317 318 316 315 315 315 315 315 314 314 314 314 315 315 313 313 314 314 314 313 313 314 313 313 313 313 314 315 314 312 313 316 317 316 316 316 316 316 316 316 316 316 316 316 316
308 308 308 308 308 308 309 309 308 307 306 306 306 306 306 307 307 307 307 307 307 308 310 309 309 309 310 310 311 312 313 313 313 312 313 314 314 313 313 313 313 314 313 316 318 316 315 315 315 315 315 315 315 314 314 314 314 313 314 315 315 314 314 314 314 313 314 314 313 314 315 314 312 312 316 317 316 316 316 316 316 316 316 316 316 316 316 316
308 308 308 308 308 307 307 307 307 306 306 306 306 306 306 307 307 307 307 308 308 309 309 309 309 309 310 310 310 313 315 315 313 312 313 314 314 314 313 314 314 314 314 316 318 317 316 315 315 315 315 315 315 315 314 313 313 314 315 316 316 315 316 314 314 313 314 315 313 313 315 316 315 314 317 317 316 316 315 316 316 316 316 316 316 316 316 316
307 307 307 307 307 307 306 306 306 306 306 306 306 307 307 307 307 307 307 307 308 308 309 309 309 309 310 310 310 312 315 316 314 312 313 313 313 313 314 315 316 315 316 317 318 317 317 316 315 315 315 315 315 314 314 313 314 315 315 315 317 317 316 315 313 312 313 314 313 314 316 317 318 317 317 316 316 316 315 316 316 316 316 316 316 316 316 317
307 307 307 307 307 307 307 306 306 306 306 306 306 306 306 307 307 307 307 308 308 308 309 309 309 309 309 312 313 312 312 313 314 314 313 313 314 313 315 316 317 317 317 318 318 317 317 317 316 315 314 314 314 314 315 314 314 315 314 316 317 316 316 315 312 312 315 314 313 314 315 317 319 319 316 316 315 315 315 315 316 315 316 316 316 316 316 317
307 307 307 307 307 307 307 307 307 307 307 307 307 307 306 307 307 307 307 307 308 308 309 309 309 310 310 311 312 312 311 311 314 315 313 313 314 314 316 317 318 318 317 317 318 317 316 316 316 315 314 314 315 315 316 315 315 314 314 316 317 316 316 315 311 311 314 313 312 315 316 317 319 318 316 315 315 315 314 315 315 316 316 317 317 316 317 317
307 307 308 308 308 308 308 308 308 308 308 308 308 307 307 307 307 307 307 307 308 308 309 309 309 310 311 311 311 312 312 311 313 315 314 313 314 314 316 318 318 318 317 318 317 317 316 316 315 314 313 314 315 317 317 316 316 315 315 317 317 316 317 316 312 310 311 312 313 314 316 318 318 317 315 314 315 314 314 315 316 316 317 317 317 317 317 317
309 308 308 308 309 309 309 309 309 310 309 309 309 309 308 308 307 307 307 307 308 308 309 310 310 310 311 311 312 313 312 311 312 315 315 313 313 314 316 318 318 318 318 317 317 317 317 316 315 314 314 315 315 317 316 315 316 316 316 316 316 316 315 315 315 311 310 312 314 314 314 317 318 317 316 315 315 314 314 315 317 317 317 317 317 317 317 317
311 310 309 309 309 309 310 310 310 310 310 309 309 309 309 309 308 308 308 308 308 309 309 311 311 310 310 311 312 313 312 312 312 315 316 314 313 314 316 318 318 318 317 317 317 316 317 316 315 316 316 315 315 317 315 314 316 316 316 316 315 314 314 315 315 313 310 312 314 315 314 315 316 317 317 317 315 314 314 315 316 317 318 318 318 317 317 318
315 312 310 310 310 310 310 310 310 310 310 310 309 309 309 309 309 309 308 308 309 310 310 312 311 311 312 310 311 314 313 312 312 315 316 315 314 315 317 317 317 317 317 317 317 316 316 317 316 317 317 316 316 317 315 315 316 317 317 317 315 315 314 315 315 312 310 313 315 315 315 316 317 317 318 317 316 314 313 314 314 316 317 318 318 318 318 318
320 317 313 312 310 310 310 309 310 309 309 309 309 309 309 309 310 310 309 309 310 310 311 312 310 311 313 311 311 314 314 313 313 315 316 315 315 316 317 316 317 317 316 317 318 315 315 317 318 317 317 317 317 315 314 313 315 316 317 316 316 316 315 315 315 310 309 313 316 316 316 316 316 317 317 318 316 315 314 314 314 315 317 317 318 318 318 318
322 321 318 315 312 311 310 309 309 309 309 308 309 309 308 309 309 309 309 308 309 309 311 312 311 311 313 312 311 313 313 314 314 315 316 315 316 316 316 316 316 316 315 314 316 315 315 317 318 317 315 315 313 313 313 313 314 315 316 316 316 316 316 315 313 310 309 313 316 315 315 316 316 316 317 317 316 315 315 315 315 316 316 317 317 317 318 318
321 322 321 319 316 313 312 311 309 309 308 308 308 308 308 308 309 309 309 309 309 308 309 311 310 311 312 312 312 312 313 314 315 316 316 315 316 316 316 316 315 316 314 313 316 316 316 317 316 314 312 311 310 311 313 314 315 316 316 316 316 316 316 313 311 310 310 312 315 315 314 315 316 316 317 317 317 316 316 316 316 317 317 317 317 317 317 317
320 322 322 322 320 317 315 314 311 309 308 308 307 308 308 308 309 310 310 310 310 309 308 309 309 310 310 311 312 311 313 315 315 316 316 315 316 316 315 316 315 315 314 314 316 317 316 316 314 311 311 312 311 310 313 314 315 316 316 316 316 317 316 313 312 311 310 311 313 313 313 315 316 316 317 318 317 316 316 316 316 316 316 316 317 317 317 317
321 321 322 322 322 320 318 317 315 311 308 308 308 307 308 308 308 309 309 309 310 309 309 309 309 309 309 310 311 311 312 313 314 315 316 315 315 315 315 315 314 314 315 315 315 316 316 313 309 309 312 314 312 311 313 315 315 316 317 317 316 317 316 313 313 312 312 311 310 312 314 316 318 317 317 318 315 314 314 314 315 315 316 316 316 317 317 317
322 321 322 322 322 322 320 319 318 315 310 309 308 308 309 309 309 309 309 309 310 310 309 309 309 309 309 309 310 311 312 312 313 314 315 315 315 315 314 314 314 315 315 314 314 316 315 310 309 310 311 314 314 313 315 316 316 317 317 317 316 316 315 314 314 314 315 314 312 312 314 315 318 317 317 317 316 315 316 315 316 316 316 317 316 317 317 317
321 322 322 322 322 322 321 319 319 318 314 309 308 309 310 310 309 309 309 310 311 310 309 310 310 310 310 309 310 311 311 311 312 313 315 315 315 314 314 313 313 314 314 313 314 315 313 309 310 313 312 314 315 314 316 316 315 316 316 315 315 314 315 315 316 315 315 315 312 311 314 315 316 316 317 317 316 316 317 317 317 317 317 316 316 316 316 316
321 321 322 322 322 322 321 320 320 320 317 312 309 309 310 311 310 310 310 310 311 312 312 310 310 311 311 311 310 310 310 311 312 313 315 315 314 314 314 313 312 312 312 312 314 314 312 310 311 313 314 314 315 315 315 315 315 316 315 313 313 313 315 316 316 316 316 315 313 313 315 315 316 317 317 317 316 316 317 317 318 318 317 316 316 316 316 316
319 320 320 320 321 321 321 321 321 320 319 315 310 309 311 310 310 310 311 311 312 312 312 310 310 311 310 311 310 310 310 311 312 314 314 314 314 314 314 313 313 313 311 312 315 313 312 314 313 313 314 314 316 316 314 313 314 316 312 311 311 313 315 315 316 316 315 315 315 315 315 315 316 317 316 314 315 316 317 317 318 320 318 317 316 316 315 316
317 318 319 319 320 321 321 321 321 321 321 317 310 309 311 309 310 310 309 311 312 311 310 310 310 310 311 311 310 310 310 310 313 314 314 314 314 314 313 313 313 313 311 312 315 313 311 312 312 313 315 315 315 312 310 314 315 313 309 311 312 313 313 314 316 317 315 315 317 317 316 314 314 317 317 314 315 317 317 317 318 319 318 316 316 315 316 317
315 316 318 319 320 321 321 321 321 320 321 320 313 310 311 309 309 309 308 311 313 311 309 310 310 310 311 311 309 310 310 311 313 313 313 313 313 313 312 312 312 313 312 312 314 312 309 309 310 313 314 312 311 307 307 313 313 311 312 315 315 314 314 315 315 315 315 316 317 317 316 314 312 316 318 316 315 317 317 317 318 318 317 316 316 316 318 319
313 314 316 318 319 320 320 321 321 320 320 321 315 310 310 310 309 309 309 310 310 311 310 309 310 311 311 311 311 310 310 311 312 313 313 313 313 312 312 312 312 313 314 314 314 312 311 311 312 312 311 310 311 310 308 308 309 312 317 317 316 314 314 315 315 316 316 316 315 314 315 315 313 314 316 315 315 314 316 317 317 318 318 316 315 316 318 318
312 313 315 317 318 319 319 319 320 320 319 321 315 309 310 311 310 311 310 309 310 312 312 311 310 311 311 312 313 311 311 312 312 313 314 314 314 313 313 313 314 314 314 314 315 314 314 315 313 311 309 310 314 314 311 310 310 314 317 316 315 313 314 315 316 316 316 315 312 310 312 315 314 315 315 315 315 315 315 316 317 318 317 316 315 315 316 317
311 312 314 317 317 318 318 318 319 319 319 320 315 309 312 314 313 313 311 311 313 312 312 312 310 311 311 312 312 311 311 312 312 313 313 314 315 314 314 314 314 315 313 314 315 313 314 315 313 312 311 311 314 315 314 313 313 315 317 316 314 313 314 315 314 312 313 313 309 308 313 316 315 315 316 316 316 317 316 315 315 315 315 316 316 315 315 315
310 311 313 316 317 317 317 318 318 318 318 320 315 310 313 316 316 316 314 314 313 310 310 312 311 310 311 312 312 311 311 312 312 312 313 314 315 315 315 314 313 314 313 312 314 314 314 314 313 314 314 312 313 314 316 316 315 315 317 316 314 314 314 314 313 312 312 313 309 308 314 317 316 315 315 314 314 314 314 314 315 314 315 316 316 315 314 315
309 310 312 315 316 316 317 317 317 317 317 316 312 311 314 316 317 317 316 314 313 311 311 311 311 312 312 312 312 311 311 311 312 312 313 314 315 315 315 314 312 313 313 312 313 314 314 314 314 313 312 312 313 314 315 316 316 315 315 315 315 315 313 311 311 311 311 312 312 311 313 316 315 315 314 314 314 314 313 313 313 314 315 315 315 316 315 315
308 308 310 312 315 316 316 316 316 316 316 313 311 312 314 316 317 317 317 314 312 312 312 311 312 313 312 312 312 311 311 312 312 313 313 314 315 315 315 315 313 312 312 312 313 314 313 313 313 311 311 311 312 312 313 313 314 314 314 315 314 314 314 312 310 308 309 312 314 313 313 313 313 314 314 314 315 316 315 314 314 315 315 314 314 316 316 315
306 307 307 310 313 315 315 315 315 315 314 312 312 313 314 313 314 316 316 312 311 312 312 313 313 313 313 313 313 312 312 312 312 313 314 313 313 314 313 314 314 312 312 312 313 314 313 313 312 311 312 310 308 310 311 310 312 314 314 315 313 313 314 313 312 312 312 314 314 313 314 313 313 314 315 315 315 315 315 315 316 316 315 314 315 316 316 315
305 306 306 307 310 313 314 314 314 314 311 311 313 313 313 312 312 312 311 310 312 314 314 314 314 314 314 313 313 312 312 312 312 313 314 313 313 314 313 313 313 313 313 312 312 313 313 313 313 309 311 311 308 311 313 310 310 312 313 313 313 314 315 313 313 314 315 315 315 315 313 312 314 315 314 315 315 315 316 316 316 316 315 315 316 316 315 314
303 304 305 306 307 311 313 314 313 312 311 311 313 314 313 312 311 310 310 311 313 316 317 316 315 314 315 314 314 313 311 312 313 313 313 313 313 314 313 314 314 313 313 312 311 312 312 313 314 309 308 311 310 312 315 313 311 310 311 312 312 314 315 314 313 313 314 315 315 315 313 313 315 315 314 314 315 315 316 317 317 316 316 316 315 315 315 314
302 302 304 305 306 308 311 313 312 310 311 311 313 314 313 312 311 310 310 311 313 315 317 318 315 316 316 315 314 313 312 314 314 313 314 313 313 314 312 313 314 313 313 312 312 312 312 311 313 311 308 311 313 314 315 315 313 312 313 313 313 313 313 313 313 312 313 313 313 313 314 313 314 316 315 314 315 316 316 317 319 318 316 316 315 316 316 316
302 302 303 304 306 307 309 312 310 309 311 312 312 313 313 312 311 311 310 311 312 313 314 315 316 316 316 316 315 315 314 315 314 313 314 312 312 314 313 312 313 312 312 312 312 313 313 311 312 313 311 313 315 314 313 315 316 314 314 314 315 314 313 314 315 313 311 312 313 313 314 314 315 317 316 314 315 316 316 317 318 318 316 315 315 316 317 317
302 302 302 304 307 308 309 311 310 309 311 312 312 312 312 311 311 311 311 311 312 312 312 312 314 315 314 315 317 316 316 316 315 315 315 314 312 313 312 311 312 312 311 313 313 313 313 312 312 314 314 314 313 309 307 311 315 315 313 314 315 315 315 315 316 315 312 313 312 312 314 315 316 320 318 315 315 314 313 314 315 316 315 315 315 317 318 318
301 302 302 305 307 308 309 311 311 310 310 311 311 312 311 311 311 311 311 311 312 313 313 313 312 313 314 314 315 316 316 316 316 316 317 316 313 312 312 311 311 312 313 314 314 313 312 313 313 313 315 314 312 309 307 308 312 313 313 313 313 314 315 315 315 314 314 315 314 314 315 315 317 321 316 311 310 310 311 312 313 314 316 316 316 317 317 318
301 301 302 305 308 309 309 310 311 311 310 310 311 311 311 312 312 311 311 311 312 312 313 313 313 313 313 313 314 314 314 315 316 316 316 317 314 312 312 311 311 313 313 314 314 313 313 315 315 314 315 314 313 313 312 310 311 313 314 313 313 314 315 314 313 312 314 316 316 316 317 316 317 318 313 311 312 312 312 313 312 314 316 316 316 317 317 317
301 300 301 303 306 308 309 308 309 310 310 310 310 311 311 311 311 311 311 311 311 312 312 313 313 313 313 314 314 314 314 315 316 315 315 315 315 312 311 311 312 312 312 313 313 312 316 318 315 314 315 316 315 316 316 314 312 312 315 315 314 314 314 313 313 314 314 316 317 316 316 316 315 315 315 315 316 314 313 314 313 314 316 316 316 318 318 317
301 300 301 301 302 304 306 305 305 307 309 309 310 310 311 311 311 311 311 311 311 311 312 313 314 313 313 314 314 314 314 314 315 316 314 315 315 313 310 310 311 312 312 313 312 314 320 320 316 315 316 315 316 316 317 317 315 314 316 316 314 314 315 314 314 315 315 316 316 316 316 316 316 316 316 316 315 315 316 315 314 315 317 317 317 317 317 317
300 300 301 302 301 302 303 304 304 305 308 309 309 310 310 310 311 311 311 312 311 311 311 313 313 313 314 313 313 314 314 314 315 315 314 314 315 313 310 308 310 311 312 312 312 315 319 317 315 316 316 315 315 315 316 317 316 315 316 316 315 314 315 316 315 316 316 316 316 317 317 317 316 315 316 315 315 316 316 316 315 316 317 318 318 317 317 317
300 300 301 301 302 302 303 303 304 305 306 308 309 309 309 309 310 311 311 311 311 311 312 312 312 313 313 314 314 314 314 314 315 315 315 314 314 313 311 310 309 310 311 312 312 314 317 316 315 317 316 315 315 315 316 317 316 316 316 316 316 314 314 315 315 315 316 317 316 317 317 318 316 315 315 315 315 316 316 316 316 316 316 317 317 317 317 317
300 300 300 300 302 303 303 303 304 304 305 306 307 308 309 309 309 310 311 311 311 311 311 312 312 312 312 313 314 314 314 315 315 315 315 315 314 314 313 313 311 309 310 313 313 313 315 315 316 317 316 315 315 315 316 315 314 315 315 315 316 315 314 315 315 315 316 316 316 317 317 317 316 316 316 316 315 315 315 315 315 315 316 317 317 317 317 317
299 299 300 300 301 302 302 303 304 304 304 305 306 307 307 308 309 309 310 311 311 311 311 311 312 312 312 313 314 314 314 315 315 315 314 314 314 314 313 315 315 311 310 313 314 311 312 315 317 317 316 316 315 315 316 315 314 315 315 315 315 315 315 315 315 315 316 316 316 317 318 317 316 316 316 316 315 314 314 314 314 314 315 316 317 317 317 317
299 299 300 300 301 301 301 302 303 304 304 304 305 306 306 306 307 308 309 309 309 310 311 311 312 312 312 312 313 313 314 314 314 314 315 315 314 314 313 314 316 315 311 312 314 312 311 315 317 316 316 316 316 316 317 315 314 314 314 315 315 315 315 315 315 315 316 316 316 317 317 316 315 316 316 315 315 314 314 314 314 314 315 315 316 317 317 317
299 299 299 300 300 301 301 302 302 303 303 304 305 305 306 306 307 307 307 307 307 307 308 309 310 311 312 312 312 312 312 312 312 312 313 314 313 313 313 312 313 314 313 312 313 312 312 314 315 315 316 317 317 317 317 315 314 315 315 314 315 315 315 314 314 314 315 315 316 316 316 315 315 315 315 315 315 314 314 314 314 315 315 315 315 316 316 316
Wind_Speed
19 18 18 17 16 15 14 13 13 12 12 12 11 11 12 12 13 13 14 14 14 14 14 13 12 10 7 6 5 4 4 4 4 4 4 4 4 5 5 5 5 4 3 2 2 2 2 3 4 4 6 6 6 7 7 6 7 5 2 3 3 3 3 5 7 5 1 2 8 11 13 10 6 8 8 5 8 8 7 10 11 11 12 11 8 6 5 9
19 19 19 18 16 15 14 13 13 12 12 11 11 11 11 12 12 13 13 14 14 14 13 13 11 10 7 6 5 4 4 4 5 4 3 3 4 5 5 4 4 3 3 3 2 3 2 3 4 5 5 5 5 6 5 4 4 2 1 3 4 3 2 3 6 6 1 1 8 10 13 11 5 7 9 7 6 7 8 9 11 12 13 14 12 10 8 7
18 19 18 17 16 15 14 13 13 12 12 11 11 11 11 12 12 12 13 13 13 13 13 12 11 10 7 6 5 4 4 4 5 5 4 4 4 5 5 4 3 4 4 3 3 4 4 4 5 6 6 5 4 5 4 2 2 1 2 4 2 2 1 3 6 7 3 2 7 9 11 9 5 8 9 7 5 6 10 10 10 13 15 15 15 14 13 11
18 18 18 17 16 15 14 13 13 12 12 11 11 11 11 11 11 12 12 13 13 12 12 12 11 10 8 6 6 5 4 4 5 5 5 4 4 5 5 5 5 4 4 4 3 4 5 5 6 7 7 5 4 4 2 1 2 1 2 2 2 3 1 4 8 7 3 2 5 7 8 7 6 10 10 6 5 7 12 14 13 13 14 15 15 14 15 14
19 17 17 16 15 15 14 13 13 12 12 11 11 11 11 11 11 11 12 12 12 12 12 11 11 10 8 7 6 6 4 3 5 6 5 5 4 5 6 7 6 5 5 4 4 5 6 7 7 7 5 4 3 3 2 2 4 3 0 2 3 2 1 4 7 8 5 2 5 7 6 6 7 10 11 9 8 7 8 13 14 13 13 14 14 14 15 16
18 17 16 15 15 14 13 13 13 12 12 11 11 11 11 11 11 11 12 12 12 11 11 11 11 10 8 7 6 7 5 1 4 6 6 5 5 7 8 8 7 6 5 4 5 5 7 8 7 6 4 3 1 1 3 4 4 2 1 1 2 2 3 4 6 6 6 5 5 6 6 7 7 7 11 15 16 10 8 10 10 11 12 13 14 15 16 15
17 16 16 15 13 13 13 13 12 12 11 11 11 11 11 11 11 11 12 12 12 11 11 11 11 9 8 7 6 7 4 1 3 6 6 7 8 9 9 8 8 6 5 5 5 6 9 9 7 8 5 3 2 2 4 4 1 1 3 3 2 3 3 3 4 5 7 6 5 6 6 6 8 6 7 17 24 19 16 14 11 11 10 11 12 14 16 16
16 16 15 14 13 13 13 13 12 12 11 11 11 11 11 11 11 11 12 12 12 12 11 12 11 9 7 7 6 5 3 1 4 7 8 10 11 11 10 9 7 6 5 4 4 7 9 9 10 9 4 3 4 4 4 4 1 0 4 4 3 3 2 4 5 5 5 4 5 6 5 4 7 6 7 18 25 22 21 19 17 17 15 14 13 13 15 16
16 16 15 14 14 14 13 13 12 12 11 11 11 11 11 11 11 12 12 12 12 12 12 12 10 8 7 6 6 4 3 2 4 8 10 12 11 11 9 8 6 5 4 4 6 7 7 9 11 8 4 6 6 4 3 3 1 2 4 5 4 3 3 5 5 4 3 3 4 5 3 2 4 4 10 21 24 22 22 21 21 20 19 19 17 16 16 16
17 16 15 14 14 14 13 13 11 11 11 11 11 11 11 11 12 12 12 12 12 12 12 11 9 8 7 6 5 4 4 4 5 9 11 12 11 9 8 6 4 3 2 3 5 7 7 8 9 9 9 9 6 4 1 1 3 6 8 8 5 5 4 3 3 3 1 2 2 3 2 1 1 2 8 12 13 15 17 19 22 21 22 22 21 21 20 19
16 15 14 13 13 13 12 12 12 11 11 11 11 11 11 12 12 12 12 12 12 12 12 10 9 8 6 6 6 3 4 6 7 10 11 12 10 8 6 4 3 3 2 2 4 6 7 8 10 10 7 8 7 6 4 5 7 8 9 8 6 4 4 2 2 2 0 1 0 1 3 3 2 3 10 8 7 8 8 12 16 19 21 22 22 23 23 23
16 15 14 13 13 12 12 12 12 12 11 11 11 11 11 11 12 12 12 12 13 12 11 10 9 8 6 6 5 4 4 5 9 11 11 11 9 7 4 2 3 3 2 2 4 7 7 9 9 6 6 10 8 4 6 7 6 7 6 3 3 2 2 2 2 0 1 1 1 1 5 7 7 10 14 12 12 12 11 13 14 16 18 18 20 21 22 23
15 15 15 14 13 12 12 12 11 11 11 11 11 11 11 12 12 12 12 12 13 12 11 10 9 8 6 4 5 6 5 4 8 11 11 10 9 7 4 2 3 3 4 3 5 7 7 8 6 7 12 10 4 5 8 7 5 6 2 1 2 3 3 2 2 0 2 2 3 3 5 6 9 13 13 12 14 14 15 17 18 19 19 19 19 20 21 22
14 14 14 14 14 13 12 12 11 10 10 10 10 10 11 11 12 12 12 12 12 11 10 10 9 7 6 4 4 7 8 6 8 11 12 11 9 6 3 2 3 4 5 5 5 7 7 7 7 9 11 8 8 10 8 4 2 3 0 1 1 2 2 3 2 1 3 3 6 5 6 6 5 6 7 11 14 14 16 17 18 21 21 21 20 20 22 22
14 14 14 14 13 13 12 11 10 10 9 9 9 9 10 11 11 11 11 10 11 10 10 9 8 7 5 4 5 7 9 9 9 11 13 12 9 7 4 4 6 6 6 7 7 8 9 8 8 8 9 11 12 8 4 2 2 1 2 2 1 2 2 3 2 0 1 2 6 6 5 7 8 5 3 7 8 9 14 15 17 19 20 21 20 21 21 21
14 14 14 13 13 13 12 11 10 9 9 8 8 8 8 9 9 9 9 9 9 9 9 9 8 8 4 4 6 7 9 11 10 12 13 13 11 8 6 6 7 7 7 7 7 9 9 8 8 9 8 8 7 4 3 3 1 1 2 2 2 2 1 1 2 2 2 1 5 6 4 4 4 2 3 4 4 6 11 15 17 18 19 20 20 21 20 20
12 13 13 13 13 12 11 11 9 9 8 8 8 8 8 8 8 8 8 8 8 8 9 7 8 7 3 4 6 7 10 12 12 12 13 13 12 8 8 8 8 7 7 7 7 7 6 6 7 7 4 2 1 3 4 3 4 2 1 1 1 2 2 1 2 3 1 1 5 6 6 10 8 5 8 9 11 12 13 19 22 21 21 21 20 21 21 22
8 11 12 12 12 12 11 10 10 9 8 8 8 8 8 8 8 8 8 8 8 8 7 7 8 5 4 7 8 8 11 12 12 13 13 13 12 10 9 9 8 7 6 6 5 3 3 4 4 3 2 2 2 5 5 2 3 4 4 3 1 2 3 3 1 2 0 2 5 7 8 14 14 13 18 20 20 18 17 22 26 27 29 28 27 27 28 29
3 6 8 10 11 11 11 11 11 10 9 9 8 9 9 8 8 7 8 9 9 6 3 8 11 3 2 10 11 8 9 12 12 13 14 14 14 12 10 9 9 8 6 4 3 2 2 3 3 3 4 6 7 7 4 1 2 4 3 2 1 3 3 3 1 2 1 3 7 10 11 14 14 14 18 21 20 18 20 21 25 29 32 33 34 35 35 36
2 2 4 7 9 10 11 12 12 11 12 10 11 11 9 9 7 4 9 12 12 7 2 9 15 4 3 7 13 10 8 10 12 14 15 15 15 14 11 10 9 7 3 2 2 2 1 2 5 5 4 6 7 3 4 5 4 6 4 1 1 3 3 2 1 2 1 4 7 8 11 14 14 13 17 20 17 17 19 20 24 31 35 36 37 38 38 38
4 3 2 3 7 9 9 11 12 13 13 12 14 11 9 10 5 3 10 11 13 13 5 7 13 9 3 5 9 11 9 8 11 15 16 16 17 14 11 10 7 4 2 2 3 2 2 5 6 3 2 3 4 5 7 5 4 4 3 1 2 4 3 1 2 1 2 3 5 3 9 15 14 13 17 18 15 17 20 19 23 28 32 37 39 41 41 40
8 6 3 2 3 6 8 9 11 14 14 14 15 11 8 11 7 5 7 6 10 15 11 9 11 12 9 5 6 9 8 6 8 15 17 18 19 13 9 9 5 4 3 4 4 2 3 6 3 4 6 7 6 4 4 4 3 2 2 1 2 3 2 1 2 2 1 3 4 3 7 14 15 14 18 20 19 22 27 25 27 26 27 34 40 41 40 40
12 8 5 4 4 4 6 7 9 12 15 15 15 12 9 9 8 6 5 2 4 10 14 14 13 14 14 11 8 8 8 5 7 15 18 19 18 12 11 9 4 4 5 6 7 4 4 4 1 6 8 8 6 3 4 4 2 2 2 3 2 0 1 1 2 2 2 2 4 5 7 12 15 15 16 19 20 23 28 29 32 33 34 41 45 42 40 40
15 12 8 6 5 5 4 5 6 9 13 15 15 13 11 9 8 6 4 1 1 5 11 14 14 16 16 13 11 10 10 7 6 13 19 20 17 11 9 7 4 5 6 7 7 6 3 1 3 6 5 5 6 5 6 5 3 3 4 6 4 2 2 2 2 1 2 2 2 6 8 8 9 10 11 9 8 14 20 20 25 31 34 39 40 39 37 38
16 16 12 8 7 6 5 4 4 6 10 13 14 13 11 10 8 6 4 1 2 3 6 11 11 14 17 16 13 11 9 9 9 11 18 22 18 11 6 6 5 5 6 5 3 6 2 4 7 7 3 3 5 5 6 6 4 3 5 8 8 3 1 1 2 3 3 2 0 3 6 5 2 8 11 6 4 10 11 10 19 27 29 30 33 36 36 35
14 15 15 12 9 8 6 5 3 4 7 11 14 14 12 10 9 7 5 1 3 3 4 8 8 9 13 13 14 12 5 7 11 13 17 22 19 11 6 5 2 2 5 6 2 3 1 4 5 6 6 5 3 4 5 6 4 3 2 5 8 2 1 2 1 2 3 2 1 0 5 6 5 12 15 8 10 15 9 9 18 26 28 30 33 36 35 33
14 14 14 14 13 11 8 5 4 3 5 7 12 14 13 12 10 7 4 1 4 5 6 8 8 9 10 12 18 14 3 5 11 13 19 21 18 12 7 6 3 2 5 4 2 1 3 5 3 5 7 6 5 4 5 8 6 1 1 1 4 5 4 3 2 3 3 3 1 3 3 6 8 11 10 5 10 15 12 11 16 22 28 31 31 30 27 24
15 14 15 15 15 14 11 8 6 4 4 4 10 15 13 13 12 7 4 3 2 5 6 7 9 10 13 17 20 11 4 9 8 10 20 21 17 10 6 7 6 5 6 5 5 1 2 6 7 7 6 5 5 0 4 11 5 1 1 1 3 3 2 2 1 2 1 4 3 4 4 6 8 6 1 2 6 10 12 13 13 15 19 21 22 20 16 13
15 15 17 17 16 16 15 14 12 8 5 3 8 16 15 14 11 6 2 3 2 4 3 7 10 9 13 17 12 5 6 5 1 8 18 17 14 7 3 7 6 6 4 2 2 1 2 2 5 7 5 4 3 5 1 7 3 3 5 5 7 5 5 3 0 0 1 4 5 6 7 6 8 6 5 1 3 8 11 9 9 9 11 12 13 11 8 7
14 14 16 17 18 20 19 18 16 12 9 4 6 16 19 14 7 4 3 3 2 2 3 7 7 7 14 13 4 1 3 1 5 12 12 8 10 5 4 8 5 5 3 2 1 2 2 2 2 4 3 3 6 6 4 1 5 9 7 5 7 4 3 3 1 2 2 6 2 7 10 6 7 3 7 4 2 5 7 5 5 6 9 11 7 4 3 3
13 14 16 17 20 22 20 21 18 15 14 9 9 18 17 8 2 4 6 1 1 3 4 4 3 7 15 12 4 4 2 2 7 12 8 5 7 5 6 7 4 3 2 2 2 1 1 2 2 3 4 7 8 6 6 4 4 5 3 3 4 2 1 1 1 1 4 6 1 2 2 5 8 4 3 1 4 5 6 5 5 4 8 11 7 3 3 2
12 14 15 17 19 20 21 21 18 16 16 13 15 18 11 3 2 5 5 3 1 4 4 3 2 6 12 7 3 6 4 2 6 7 5 5 6 7 6 6 6 4 4 7 4 1 2 3 2 3 6 8 6 6 6 3 2 2 3 6 4 2 2 3 2 2 5 4 2 3 2 4 11 7 4 9 11 11 8 8 10 9 13 19 15 11 8 5
12 13 15 17 17 18 19 19 17 16 16 16 16 11 2 3 8 8 7 4 1 1 3 3 2 4 8 6 4 5 2 2 6 5 2 3 5 7 5 3 4 3 3 5 4 2 3 1 3 4 4 8 9 7 5 4 5 7 7 7 6 4 4 5 3 1 4 2 2 3 1 5 10 7 8 14 16 14 9 12 19 20 23 28 24 21 19 15
13 13 15 18 18 19 18 17 17 17 17 18 15 7 1 6 7 8 10 4 1 2 3 3 5 5 5 4 2 5 2 2 6 5 3 5 5 7 6 5 6 2 1 3 3 6 6 4 7 8 5 12 14 8 6 6 7 8 4 3 5 5 5 5 3 2 3 1 2 1 2 6 5 2 3 8 11 16 15 15 20 25 30 33 32 32 31 27
12 13 16 18 19 20 19 19 18 16 17 18 12 5 6 7 3 6 8 3 2 2 2 3 6 6 4 1 1 2 2 1 4 4 4 7 6 7 8 8 10 6 3 4 3 4 6 5 4 3 3 14 13 4 5 6 5 4 1 1 5 4 3 1 1 1 1 1 2 3 4 6 4 4 7 8 9 12 15 15 16 23 30 29 30 35 35 32
11 12 14 17 20 20 19 20 18 16 18 18 8 2 7 5 3 4 3 2 3 5 7 4 4 5 5 2 1 3 2 1 4 4 3 4 4 5 6 7 12 13 9 7 3 3 4 2 2 2 1 7 4 1 4 3 3 4 3 5 3 1 1 2 0 2 2 4 4 4 6 8 6 8 9 10 12 10 10 11 13 23 28 23 25 33 32 29
12 11 12 15 19 19 20 20 17 17 20 16 5 5 5 3 4 3 1 2 3 4 8 6 4 5 6 4 4 6 4 2 4 5 4 3 3 6 7 5 8 15 15 8 2 2 3 1 1 1 2 2 2 3 3 2 2 4 5 5 2 2 1 2 3 1 3 7 4 4 9 9 6 6 1 3 8 10 11 11 14 21 23 21 28 33 27 22
13 12 13 14 17 19 21 20 17 19 19 9 3 6 3 3 6 5 4 5 3 1 4 4 4 4 6 6 5 6 6 5 7 6 5 4 4 8 10 5 7 16 18 9 1 1 3 3 1 1 0 2 2 2 3 1 2 1 1 2 2 2 3 3 4 4 4 6 4 4 7 7 8 8 3 3 7 9 11 11 10 13 14 19 31 32 23 17
11 10 10 11 15 19 20 19 22 23 15 5 5 7 4 5 8 10 12 10 3 2 2 2 1 1 3 5 3 5 7 6 8 7 6 5 5 7 11 9 8 13 18 14 4 1 3 5 3 1 1 1 3 5 7 5 3 2 0 2 0 2 3 3 3 2 4 5 4 4 4 6 8 6 5 10 11 10 11 8 5 8 15 21 25 23 20 17
8 6 5 9 14 18 19 20 22 19 8 5 7 4 3 4 6 15 22 14 4 4 4 2 2 0 0 2 1 3 5 4 6 6 4 6 6 4 9 10 5 4 12 16 7 1 3 5 4 1 1 2 5 7 9 9 8 5 6 6 4 2 0 2 2 1 2 4 3 4 6 8 6 4 6 10 9 7 8 6 5 11 18 18 14 14 16 14
8 4 4 10 14 18 23 19 14 8 3 5 6 3 3 4 5 12 21 18 9 6 6 5 6 5 3 2 1 1 3 2 4 4 2 5 8 4 5 8 7 7 7 10 8 6 5 4 4 4 3 6 5 1 2 6 8 7 8 10 10 8 5 4 5 2 0 3 2 2 6 10 4 3 5 8 5 4 6 5 7 14 19 16 12 12 12 9
9 3 4 12 14 21 25 14 7 7 5 6 7 4 3 3 4 9 14 16 10 5 5 6 8 8 7 7 4 2 3 2 3 4 3 5 9 6 3 7 12 14 10 5 5 6 4 2 4 5 4 4 1 3 2 3 1 2 4 5 7 7 8 8 6 3 2 2 1 1 5 10 4 2 3 3 1 3 4 5 9 17 21 20 17 13 9 9
9 6 8 12 15 25 23 8 6 8 6 7 6 4 5 3 3 7 11 13 9 5 6 5 6 9 9 9 8 5 5 4 3 5 4 4 7 9 6 8 13 13 7 1 2 4 3 1 4 5 2 2 2 2 1 2 1 3 5 3 3 6 8 6 2 2 3 4 4 3 6 9 4 1 1 2 3 7 9 10 14 19 22 22 17 12 9 10
8 8 10 11 16 26 19 6 7 9 8 8 5 4 7 6 5 7 8 10 9 5 6 4 4 9 8 6 8 9 8 6 6 9 8 5 5 8 11 15 14 10 6 3 4 8 6 2 5 6 3 3 3 3 3 2 3 5 4 5 7 8 6 2 1 1 3 7 9 8 8 9 3 2 1 2 3 7 10 13 17 18 18 17 12 10 10 11
7 7 11 12 16 21 15 5 5 9 11 12 9 9 11 6 7 12 11 10 10 7 5 6 7 9 7 4 6 9 10 9 8 9 10 9 4 2 11 19 17 13 11 6 7 11 7 2 5 7 7 7 7 5 4 4 4 3 4 7 11 12 11 6 3 5 7 10 11 9 10 12 5 4 3 4 4 6 9 12 16 16 16 15 12 11 13 13
7 4 6 10 14 14 11 7 4 4 9 12 9 10 13 9 7 13 14 11 12 11 7 5 7 9 7 6 7 8 10 12 10 6 7 10 6 0 7 17 20 19 16 12 13 11 3 1 5 8 10 10 9 6 1 5 7 7 9 9 10 12 13 9 6 8 10 10 10 10 12 17 16 8 6 5 4 5 7 8 12 16 15 13 13 12 13 14
8 4 4 6 7 8 7 7 7 4 6 10 8 7 14 15 8 9 13 12 13 14 9 4 7 9 9 11 10 9 10 12 11 9 9 9 4 1 2 10 15 18 15 14 16 11 3 4 10 12 14 16 17 11 3 6 9 11 12 12 11 11 13 12 11 13 13 10 11 13 14 17 22 18 12 9 6 5 5 7 14 17 14 12 14 15 11 12
9 5 8 9 5 4 7 10 12 10 6 7 6 4 11 16 13 10 11 10 12 15 10 6 10 13 13 14 11 9 10 10 11 12 11 8 4 0 1 3 7 11 10 9 12 8 3 7 11 13 16 19 20 13 5 6 8 8 11 13 14 14 16 16 17 19 17 12 12 16 17 18 21 20 14 11 10 11 12 15 18 18 17 15 15 14 13 14
12 6 9 11 4 1 5 9 13 12 9 6 5 4 7 13 15 13 9 7 9 12 11 10 12 15 16 16 12 10 10 10 9 10 10 9 7 4 4 3 3 7 8 6 5 4 3 7 10 12 13 17 20 15 8 9 9 7 8 11 12 16 18 20 21 22 21 17 15 18 22 22 21 17 13 10 12 16 21 23 23 22 23 22 18 16 18 22
16 10 8 7 4 2 2 6 10 10 9 8 6 5 7 10 13 12 9 8 8 9 12 15 15 14 14 15 14 12 11 11 10 11 10 9 7 6 6 5 3 3 5 5 3 2 4 6 7 7 7 13 19 19 14 13 13 12 9 7 10 15 18 21 20 17 17 17 18 19 21 21 18 13 14 17 15 15 18 20 24 28 30 29 26 25 27 30
21 16 10 5 4 6 3 3 7 7 7 8 8 7 8 10 11 8 4 6 8 7 9 14 15 12 11 14 15 14 14 12 13 14 12 12 11 9 7 7 7 5 5 5 3 3 6 6 3 5 6 11 16 20 16 10 8 10 10 10 13 15 15 15 14 13 14 16 16 15 15 17 12 5 11 18 15 13 14 16 22 30 33 33 34 34 34 36
24 20 16 9 4 6 6 2 4 6 7 9 10 8 7 7 9 8 4 5 9 13 13 12 9 6 8 12 13 13 12 10 13 17 17 16 13 10 8 6 4 4 5 6 3 4 7 6 4 6 7 10 16 16 8 5 4 7 13 17 20 19 14 10 11 15 18 16 12 11 12 16 14 8 11 13 8 10 14 18 25 30 33 36 38 39 39 39
Wind_Direction
188 189 192 196 197 198 199 199 200 203 206 208 208 209 209 208 207 205 203 202 199 198 198 197 197 195 189 187 186 181 174 171 170 166 155 159 158 156 159 153 155 156 163 171 157 151 132 141 135 133 145 139 141 140 138 136 140 158 183 211 204 183 182 178 180 172 108 138 160 175 186 193 184 186 201 213 209 217 233 228 231 231 227 224 210 202 196 196
191 190 193 194 195 198 201 201 203 205 209 211 213 214 215 214 211 209 206 203 201 199 199 199 199 197 193 189 189 188 183 184 182 180 176 172 169 170 171 163 169 174 171 180 178 165 150 152 146 145 150 135 129 139 139 130 136 141 151 216 213 170 148 174 175 160 108 131 155 172 187 197 197 177 192 214 202 204 229 231 231 237 234 229 225 223 226 219
195 194 195 194 193 198 202 204 206 209 211 214 217 219 219 219 215 213 209 206 202 201 200 200 200 199 195 191 190 190 189 194 195 196 193 185 183 180 181 182 180 176 174 171 169 178 173 159 147 148 151 135 124 143 136 127 154 101 191 226 205 137 120 180 179 152 94 98 149 166 182 196 206 179 189 217 206 200 229 229 221 231 236 235 232 231 235 238
197 198 197 196 196 199 203 207 209 212 215 217 219 221 221 220 218 215 211 209 205 203 203 201 200 199 196 194 191 185 187 200 201 205 196 186 189 186 188 184 172 166 164 159 161 176 174 157 146 147 144 125 112 135 115 91 166 129 206 259 77 139 154 161 181 167 122 98 147 156 171 195 203 192 194 204 215 220 233 235 232 235 238 242 242 239 238 240
199 200 201 201 201 202 205 209 213 215 219 221 221 222 221 219 217 214 212 209 207 206 207 204 201 201 198 196 193 179 179 193 197 205 196 186 190 185 179 173 169 158 151 154 161 166 163 154 148 149 137 121 127 138 100 81 132 123 2 353 68 151 116 136 176 188 191 156 152 159 173 197 190 199 208 206 225 233 233 238 241 245 247 252 252 247 242 241
201 201 203 206 207 208 211 212 216 219 222 225 224 222 220 218 214 211 210 208 208 208 209 206 201 202 201 199 198 186 189 196 177 190 188 181 175 167 166 164 159 150 150 149 152 163 160 158 154 146 123 108 123 113 118 132 146 145 69 81 123 90 62 132 172 195 195 181 169 177 195 197 184 210 221 219 232 239 242 244 242 243 247 252 251 245 241 240
204 204 205 209 212 214 215 217 219 222 226 227 224 221 217 215 212 208 207 206 207 208 208 206 201 204 204 200 200 193 199 38 150 174 170 166 160 157 158 156 151 142 147 147 154 170 161 164 159 138 120 104 122 96 113 133 179 246 124 147 158 71 59 125 160 177 175 187 192 193 204 192 193 220 234 233 238 239 245 249 245 247 249 251 251 246 242 242
204 205 207 208 212 215 215 218 221 224 227 225 222 218 213 209 209 206 206 206 205 206 205 202 200 203 206 203 200 193 191 131 160 167 158 158 153 153 156 151 150 139 136 146 159 165 159 167 160 144 116 96 136 128 128 133 95 66 126 149 152 87 91 115 126 149 157 188 186 189 201 193 210 234 259 250 247 246 247 250 251 252 253 250 250 249 246 244
198 200 205 205 207 209 212 216 219 223 225 222 218 213 208 204 202 202 204 204 202 202 199 196 198 204 207 203 198 191 184 180 171 165 160 159 154 156 158 152 155 140 129 152 164 164 161 167 166 165 139 118 132 130 151 181 109 88 119 138 141 106 105 111 118 131 142 154 163 192 201 206 229 253 263 254 255 257 252 249 249 250 251 250 250 250 248 248
190 193 198 202 204 205 209 213 214 218 218 216 213 207 202 198 197 197 198 199 197 196 193 192 195 199 204 200 198 194 193 196 177 171 167 162 161 164 164 164 167 152 133 153 168 169 165 166 165 159 139 128 128 108 115 218 112 112 116 112 97 92 99 100 120 122 128 129 154 228 239 253 212 223 255 250 251 258 254 248 247 247 249 251 251 250 250 250
182 188 193 196 199 202 204 207 208 209 208 206 204 201 196 191 191 190 190 192 190 188 188 190 190 194 199 193 189 179 189 198 181 176 176 171 172 175 176 185 196 198 193 167 163 160 159 160 154 148 137 137 132 95 87 103 107 117 127 115 71 72 95 73 101 105 69 127 104 294 289 265 154 205 244 241 241 253 255 248 246 246 247 249 250 250 251 250
178 182 187 191 192 196 197 198 201 201 201 199 197 194 190 187 185 184 185 184 183 184 185 186 187 190 192 189 186 165 161 186 184 182 181 180 181 184 191 213 230 223 192 185 164 146 144 149 155 154 140 145 140 108 111 110 109 119 130 138 88 114 143 76 64 3 246 229 126 94 279 245 201 226 241 241 249 254 256 254 250 248 247 247 247 248 249 250
177 179 181 185 186 189 191 191 194 195 195 196 194 189 186 183 181 181 181 179 179 180 182 183 183 185 185 182 188 187 178 175 185 189 187 184 185 187 203 234 232 204 171 181 166 144 137 144 159 151 138 139 133 126 122 100 112 123 98 305 138 182 194 88 51 295 213 209 149 147 272 245 210 230 239 244 252 258 262 259 255 253 253 251 250 250 250 251
176 179 179 180 182 184 188 189 191 191 191 191 189 186 183 180 179 180 179 177 176 176 178 180 178 181 182 174 178 192 199 197 193 195 192 190 188 186 200 204 168 158 155 159 157 144 126 130 146 140 133 130 123 126 117 78 88 117 139 242 150 222 171 95 47 233 212 188 152 173 259 261 240 233 236 253 256 261 265 263 260 256 255 255 254 254 253 252
177 180 179 180 181 182 185 188 189 189 189 188 184 182 179 178 178 178 177 175 173 173 174 174 176 176 173 176 190 195 199 203 201 199 196 192 192 189 183 164 149 143 141 143 149 138 124 131 137 119 113 127 133 134 121 98 72 58 218 174 126 243 166 96 64 9 260 151 159 192 249 265 270 271 262 265 262 263 265 267 267 262 258 258 258 257 255 253
182 180 181 181 181 182 184 185 189 189 187 186 182 178 175 176 175 173 173 171 170 170 168 170 177 178 171 180 197 204 203 202 200 197 198 194 191 189 179 160 148 142 138 139 140 135 136 139 126 110 113 133 148 161 140 148 153 87 256 193 143 222 227 117 103 56 340 69 191 221 262 272 268 277 244 239 272 296 286 277 274 269 266 262 260 257 253 252
188 184 183 184 184 185 184 185 187 185 184 181 177 174 172 172 171 170 167 167 166 164 165 166 169 181 206 198 194 204 204 203 199 194 195 193 189 185 183 167 152 149 144 142 142 141 143 136 125 119 120 143 183 179 168 207 212 167 233 215 167 223 245 241 129 91 352 267 226 227 246 257 258 269 264 261 278 291 286 279 278 278 275 269 263 257 252 256
197 190 188 186 188 188 186 186 184 182 180 174 169 166 168 169 169 169 166 165 159 153 162 165 160 179 218 199 198 205 203 200 196 193 190 188 184 179 182 172 161 156 144 147 151 143 130 120 131 137 130 153 177 196 200 215 203 179 189 191 197 214 224 271 264 107 121 244 238 230 237 255 260 266 270 271 275 275 270 272 275 275 274 271 267 262 259 262
212 198 194 189 188 187 188 187 184 183 178 170 165 160 159 155 154 164 169 167 160 150 171 183 178 181 191 191 195 191 194 194 191 190 186 185 182 176 175 170 166 159 151 173 160 108 114 112 142 186 190 189 194 204 195 95 115 135 153 177 185 222 227 240 266 51 340 250 247 244 249 259 262 264 268 270 271 269 267 269 270 271 271 269 267 265 263 264
253 234 202 193 186 183 187 188 188 186 179 173 167 159 152 146 136 160 179 177 179 181 184 188 191 187 70 175 194 183 170 180 185 185 184 185 180 172 168 159 158 157 155 191 141 90 139 187 201 209 209 191 186 161 100 85 89 106 118 153 182 253 256 178 113 57 47 267 256 246 262 269 268 267 268 270 270 265 261 261 264 267 269 268 267 266 264 264
225 255 236 199 181 177 182 187 190 186 183 179 172 166 164 168 160 163 180 189 199 201 197 183 193 196 132 129 175 182 172 171 181 183 184 182 176 174 171 158 159 172 136 97 114 106 166 220 226 212 70 112 134 112 108 107 91 109 150 194 217 244 249 121 77 56 106 267 266 269 283 276 270 268 266 267 266 262 257 252 257 263 266 268 268 267 266 265
204 225 233 255 199 170 167 179 190 187 184 183 179 179 182 186 186 160 166 185 207 211 217 208 201 206 205 183 168 177 172 166 182 186 183 179 178 181 172 166 183 178 129 121 138 137 205 231 223 114 98 93 100 122 131 117 109 126 149 213 244 244 250 125 73 41 126 241 276 333 300 283 279 273 264 258 252 258 260 257 259 262 264 266 267 268 268 269
196 207 211 238 253 203 163 165 184 188 186 184 182 183 183 185 186 178 167 151 198 214 221 221 219 216 214 216 214 195 182 175 183 188 187 180 181 186 174 170 179 143 152 187 189 182 201 241 124 124 139 122 102 136 139 122 156 185 181 209 236 212 264 238 85 64 150 234 302 325 300 284 280 273 264 255 245 254 262 261 263 264 263 264 265 267 267 269
193 198 205 216 244 244 205 175 176 183 188 186 183 183 180 176 176 179 165 124 262 222 219 220 222 225 221 218 217 205 200 204 191 190 192 185 178 182 178 161 144 153 181 194 200 209 200 32 100 133 148 138 127 151 168 179 201 213 215 222 236 212 218 258 22 3 213 194 302 305 289 272 265 266 269 263 241 252 260 261 265 263 260 262 264 266 266 266
199 196 202 209 228 245 241 217 182 178 187 186 186 182 176 171 166 167 151 109 279 217 220 219 218 228 224 219 215 199 200 213 211 198 193 190 181 169 158 151 167 190 180 155 182 237 223 110 137 133 105 127 142 167 189 198 205 221 222 227 240 244 146 209 13 336 266 224 136 314 287 264 271 273 265 260 257 260 247 241 260 263 261 262 265 266 267 268
213 201 203 206 215 230 238 230 197 179 181 183 188 182 174 165 156 160 142 51 269 184 181 202 203 214 211 208 195 182 200 222 213 202 189 191 188 174 154 146 176 192 149 140 182 256 174 128 140 141 141 140 156 197 194 193 210 225 216 226 234 228 122 205 263 289 276 288 141 273 278 279 297 278 268 259 264 268 250 232 254 260 262 262 264 268 271 273
219 212 214 214 215 222 226 227 209 169 152 173 187 182 174 163 152 154 152 302 259 173 149 175 183 192 193 182 173 175 205 181 183 191 185 187 188 188 186 161 150 155 141 147 208 220 138 152 149 140 146 150 175 206 187 187 200 190 50 215 193 183 201 210 205 239 282 332 252 182 233 271 273 270 280 277 259 268 267 256 253 255 260 264 267 271 274 276
222 217 221 227 229 226 222 226 220 182 141 147 174 176 169 160 152 143 169 247 226 138 143 166 169 181 177 168 170 170 131 144 157 182 181 183 184 186 205 188 172 159 156 181 212 203 129 177 181 161 158 177 181 87 166 180 192 6 38 74 125 142 159 141 166 228 322 324 263 172 173 263 261 234 289 342 256 267 264 256 254 252 257 264 269 276 279 279
221 218 220 226 231 226 221 224 221 208 189 127 155 169 161 155 150 121 149 227 161 117 134 158 160 169 161 160 171 153 126 143 110 165 172 178 180 177 195 188 165 127 138 236 238 57 44 193 188 171 178 189 138 33 179 190 175 132 137 95 87 78 70 86 291 156 76 283 256 162 169 262 282 213 162 132 250 258 258 252 259 266 272 279 284 292 297 288
215 214 213 213 217 220 222 223 220 216 205 177 162 166 156 149 146 136 183 213 173 111 106 147 160 158 152 155 175 132 124 89 103 138 151 166 175 160 124 147 135 117 122 338 347 85 49 86 158 195 196 139 109 63 18 32 120 143 146 100 92 82 64 76 29 48 267 267 223 153 178 232 291 224 162 168 223 242 253 252 253 274 293 300 311 330 328 310
214 210 204 204 211 217 221 222 219 217 209 197 174 166 158 140 120 183 191 179 42 137 122 140 153 155 161 163 173 167 135 70 137 147 146 154 165 140 127 140 125 124 178 246 203 109 89 150 153 190 155 121 112 85 49 57 127 152 153 132 127 122 118 131 99 117 244 252 101 90 199 228 253 238 137 300 296 260 251 261 270 288 295 295 303 299 301 323
217 210 200 202 211 215 218 222 222 219 215 206 182 170 163 141 178 212 187 94 98 177 154 164 183 172 173 167 149 157 144 126 163 171 158 157 175 171 179 188 165 166 226 215 189 112 198 200 118 122 154 159 147 104 78 76 198 221 165 162 192 209 191 233 207 169 238 240 51 353 325 238 248 263 299 286 274 255 233 239 262 278 282 281 279 268 266 263
214 209 197 197 209 216 216 221 223 216 217 216 191 165 119 184 189 208 195 151 138 176 103 107 126 160 165 159 154 152 131 151 170 181 165 158 190 194 213 232 182 203 242 187 169 168 205 227 140 148 172 195 190 158 151 176 193 198 182 175 196 194 206 234 196 188 269 244 43 339 233 241 267 281 262 257 263 269 259 247 256 265 273 276 276 271 267 258
208 207 198 193 204 215 215 219 219 213 212 203 179 132 108 208 192 204 202 183 43 35 51 91 112 131 166 171 174 163 159 185 168 164 165 163 187 205 214 227 215 240 59 159 182 188 216 248 179 172 162 181 198 203 169 152 171 195 190 181 203 195 208 229 197 219 260 116 80 323 215 230 258 334 249 250 277 289 286 267 259 260 263 266 270 272 270 264
207 207 200 196 203 209 214 220 218 218 208 180 151 127 193 205 198 203 204 182 107 96 58 92 123 140 185 260 352 199 218 220 167 159 171 177 192 201 197 201 200 190 159 197 202 171 225 263 169 148 139 168 187 203 129 124 161 191 72 201 230 218 197 232 328 170 78 19 195 197 244 245 248 303 280 259 274 284 283 277 267 261 260 259 263 267 268 268
214 212 204 200 203 204 212 218 217 222 200 164 134 184 195 205 206 189 194 153 148 142 123 121 136 153 185 195 208 222 248 96 159 175 194 203 230 212 201 205 194 189 187 192 181 148 213 272 74 43 120 172 186 121 134 158 176 158 168 200 222 330 119 166 222 84 95 267 242 186 249 271 284 283 261 240 250 260 270 277 270 265 264 264 263 264 265 268
220 223 220 206 201 204 209 212 216 213 189 162 159 211 187 228 203 164 166 130 115 140 149 164 188 177 183 188 191 195 190 140 164 192 189 182 244 215 206 231 200 196 203 203 208 212 210 249 87 98 176 184 5 57 90 13 66 140 190 190 139 26 6 204 235 192 182 246 254 194 237 262 274 272 242 173 238 251 258 261 262 265 269 270 269 268 269 270
224 233 238 218 202 200 203 210 214 197 175 156 216 216 187 205 186 166 155 140 103 101 170 196 193 177 190 192 183 177 180 175 170 190 187 172 224 199 183 208 205 203 210 210 235 226 204 235 206 70 194 131 86 153 153 64 53 74 215 160 119 221 206 184 217 229 215 233 249 217 233 250 240 244 274 252 235 240 247 247 253 266 270 268 268 270 275 275
226 236 247 228 207 198 198 206 199 182 167 168 219 213 206 192 182 180 169 152 127 132 167 236 201 96 198 185 162 157 183 188 165 178 193 182 210 191 179 196 203 201 200 193 197 132 166 229 228 78 312 103 125 204 200 168 104 35 301 159 28 263 222 189 187 222 230 228 241 247 252 249 228 214 236 249 244 238 241 245 253 263 264 267 272 280 285 280
203 212 236 210 198 195 195 198 188 173 164 203 206 198 189 177 183 193 187 175 157 164 183 223 186 28 228 158 89 163 192 206 172 187 206 183 203 203 185 194 177 171 190 186 195 167 141 224 227 110 325 211 184 206 203 180 163 174 196 187 189 196 245 268 223 175 244 234 234 256 266 264 245 165 192 234 247 238 234 240 245 252 256 261 279 301 294 276
176 188 217 186 182 183 182 183 179 174 200 220 217 219 177 160 167 192 194 190 192 190 185 186 184 197 209 196 254 172 176 199 183 204 229 196 215 222 188 195 164 124 156 180 198 202 177 204 202 156 182 205 198 210 232 198 178 184 196 194 198 186 160 216 218 171 248 256 229 232 267 270 263 142 199 226 238 238 225 221 240 251 257 266 283 298 288 250
180 190 183 173 179 177 173 173 178 187 213 217 214 202 155 132 146 172 184 192 203 202 182 190 189 191 200 205 208 156 147 183 186 205 235 222 225 223 188 193 171 149 146 167 201 192 160 180 202 192 192 199 162 46 352 298 273 239 233 207 205 193 185 209 217 177 162 223 252 285 269 270 261 139 201 224 225 268 244 232 249 254 262 277 284 277 261 219
195 204 172 167 181 178 171 179 197 187 222 226 204 171 158 156 148 160 177 190 201 192 185 195 184 191 205 202 195 181 173 192 195 205 240 258 236 230 208 174 165 159 152 140 207 165 127 150 214 218 205 103 65 70 56 12 32 241 246 204 195 210 207 215 224 180 181 184 199 218 244 260 266 132 241 279 279 274 260 249 253 256 265 277 274 255 239 212
194 206 191 171 180 181 178 192 199 195 224 223 206 196 200 204 177 163 177 193 197 189 192 198 185 202 212 190 189 196 186 192 213 212 226 253 240 223 206 184 171 171 187 201 176 168 167 196 208 214 224 191 181 200 205 189 193 229 231 189 201 207 183 135 80 208 222 205 206 220 240 252 257 96 220 256 263 271 263 255 258 259 265 274 264 232 221 211
174 204 215 202 195 194 196 212 200 204 217 215 216 216 213 217 194 188 192 196 197 193 194 200 194 201 205 174 194 206 193 199 220 210 215 237 246 198 202 197 186 188 202 194 156 162 174 222 192 199 221 217 209 210 207 186 171 217 235 199 203 198 175 165 187 205 227 225 217 222 242 253 247 132 176 228 233 261 264 259 262 259 257 268 266 230 213 214
170 194 219 213 215 218 222 229 219 210 212 211 216 218 216 221 203 195 200 202 202 200 197 199 190 191 196 190 202 212 204 211 224 211 208 224 231 146 201 201 198 204 206 186 163 156 145 279 207 213 227 231 241 246 154 125 152 196 219 201 197 199 188 189 209 212 222 236 235 225 232 254 259 230 198 206 203 237 257 252 257 260 258 270 280 259 229 220
192 206 193 187 211 226 227 221 213 210 205 200 200 211 216 219 217 198 199 204 204 201 208 216 184 186 196 197 208 218 210 214 225 226 225 222 220 14 193 200 210 215 208 187 175 156 104 222 213 224 233 239 253 253 176 152 187 202 211 199 188 195 193 196 217 223 221 232 245 234 222 243 259 253 234 227 223 238 262 257 260 266 265 267 278 279 262 233
202 216 202 190 184 208 218 210 200 200 202 196 200 221 217 217 222 210 198 205 207 201 208 220 201 203 204 195 203 218 210 213 223 225 230 229 216 99 128 195 222 219 203 188 183 163 160 217 210 219 231 240 252 249 188 192 220 209 210 206 192 190 193 201 218 226 224 224 243 250 240 238 253 259 248 236 234 235 242 253 264 273 274 270 271 278 279 259
202 212 207 204 199 173 209 199 187 194 202 189 196 225 213 214 220 215 195 198 211 202 204 216 211 210 212 208 210 215 209 210 221 222 227 231 218 198 213 230 223 210 194 182 196 186 194 222 214 213 228 243 251 248 213 210 235 235 219 215 202 195 195 204 216 223 225 228 238 253 255 251 253 260 261 255 247 242 241 245 251 259 263 264 263 260 264 265
204 202 190 192 201 159 158 168 168 184 199 192 201 221 210 211 217 211 195 197 210 203 203 219 223 211 210 216 220 222 214 208 221 226 221 226 222 205 221 224 176 188 197 185 212 202 191 226 215 190 221 246 248 248 235 222 233 238 228 217 216 212 208 213 219 220 224 231 239 248 259 262 257 257 268 270 258 242 239 237 239 245 249 252 252 249 253 261
210 205 190 174 197 193 172 140 155 174 191 192 201 207 205 215 213 201 204 224 228 224 209 220 232 227 222 225 226 232 233 227 240 245 234 232 230 213 213 210 185 188 200 195 195 157 181 222 196 161 214 241 241 243 238 221 224 239 236 222 216 216 215 216 220 221 221 225 233 242 253 261 260 238 255 262 248 227 227 226 232 241 244 247 249 249 252 258
210 206 202 204 214 196 188 160 161 184 197 197 203 201 194 205 198 189 219 240 230 241 240 236 246 250 235 234 234 239 246 258 274 274 270 268 257 231 220 224 218 203 184 185 193 159 174 202 197 188 213 238 242 240 218 159 174 233 235 227 221 219 219 222 227 230 225 219 224 231 234 249 259 252 249 252 227 213 228 228 233 240 243 246 250 251 253 257